Starlink 33817

operational
NORAD ID: 63583 Int'l Des: 2025-076 Owner: SPXS Country: US Constellation: starlink
LEOCIRCULAR

Über Starlink 33817

Beschreibung wird geladen...

Live-Position

3D-Globus wird geladen...

Nächste Überflüge

Höhenverlauf

Altitude vs Time

uPlot chart will show altitude changes over time

Zweizeiliger Elementsatz

1 63583U 25076Q 25350.51329412 .00016392 00000-0 60323-3 0 9995
2 63583 42.9981 71.0862 0000537 258.5064 101.5727 15.27613799 39105
Epoch: 16. Dez. 2025 • Age: 23 hours

Aktueller Status

Höhe 482.9 km
Geschwindigkeit 7.63 km/s
Subsatellitenpunkt -2.12°S, 4.62°W
Startdatum 14. Apr. 2025
Alter 0.6 years
Typ internet

Technische Details

Klassifizierung Payload
Masse 575.00 kg
Trockenmasse 530.00 kg
Gesamtmasse 575.00 kg
Länge 0.30 m
Durchmesser 4.10 m
Spannweite 29.00 m
Form Box + pan
Hersteller SPXS
Bus-Typ Starlink V2MO
Phasenstatus In Orbit
Besitzer/Staat SPXS/US

Große Konstellationen

Loading constellations...